This is the latest recevied weather packets stored in our database for station/object DC4THF-13. If no packets are shown the sender has not sent any weather packets the latest 10 day(s).
| Time | Temp. | Humidity | Pressure | Rain* | Wind** | Luminosity | Snow |
|---|---|---|---|---|---|---|---|
| 1777597981 | 4.44° C | 81% | 1024.7 hPa | 0 mm | - | - | - |
| 1777597378 | 5° C | 81% | 1024.7 hPa | 0 mm | - | - | - |
| 1777596775 | 5° C | 81% | 1024.6 hPa | 0 mm | - | - | - |
| 1777596171 | 5.56° C | 81% | 1024.6 hPa | 0 mm | - | - | - |
| 1777595568 | 5.56° C | 81% | 1024.6 hPa | 0 mm | - | - | - |
| 1777594965 | 5° C | 81% | 1024.5 hPa | 0 mm | - | - | - |
| 1777594362 | 5° C | 80% | 1024.6 hPa | 0 mm | - | - | - |
| 1777593759 | 5.56° C | 80% | 1024.6 hPa | 0 mm | - | - | - |
| 1777593155 | 5.56° C | 80% | 1024.5 hPa | 0 mm | - | - | - |
| 1777592552 | 5.56° C | 80% | 1024.5 hPa | 0 mm | - | - | - |
| 1777591949 | 5.56° C | 78% | 1024.5 hPa | 0 mm | - | - | - |
| 1777591346 | 6.11° C | 77% | 1024.6 hPa | 0 mm | - | - | - |
| 1777590742 | 6.11° C | 76% | 1024.6 hPa | 0 mm | - | - | - |
| 1777590138 | 6.67° C | 75% | 1024.7 hPa | 0 mm | - | - | - |
| 1777589595 | 6.67° C | 75% | 1024.6 hPa | 0 mm | - | - | - |
| 1777588991 | 6.67° C | 74% | 1024.7 hPa | 0 mm | - | - | - |
| 1777588387 | 7.22° C | 74% | 1024.6 hPa | 0 mm | - | - | - |
| 1777587784 | 7.22° C | 74% | 1024.5 hPa | 0 mm | - | - | - |
| 1777587180 | 6.67° C | 73% | 1024.4 hPa | 0 mm | - | - | - |
| 1777586576 | 7.22° C | 72% | 1024.5 hPa | 0 mm | - | - | - |
| 1777585973 | 7.22° C | 71% | 1024.5 hPa | 0 mm | - | - | - |
| 1777585369 | 7.22° C | 71% | 1024.4 hPa | 0 mm | - | - | - |
| 1777584765 | 7.78° C | 65% | 1024.3 hPa | 0 mm | - | - | - |
| 1777584162 | 7.78° C | 64% | 1024.4 hPa | 0 mm | - | - | - |
| 1777583558 | 8.33° C | 63% | 1024.2 hPa | 0 mm | - | - | - |
* Rain latest hour (hover to see other rain measurements)
** Current wind speed in m/s (hover to see current wind gust speed)